Вернуться в каталог

STARLINK-5524

АктивенСвязьVLEO
NORAD 56474·PAYLOAD·🇺🇸 United States

Запущен May 10, 2023 с Vandenberg Space Force Base

Loading…

Ближайшие Пролёты (ближайшие 24 часа)

TLE

СвежийSource: CelesTrak SupGP

Эпоха: Sep 14, 2026, 14:57 UTC

1 56474C 23064AC  26257.62340278  .00527070  00000+0  43040-1 0  2574
2 56474  70.0009   8.2608 0003120 274.5285 151.1257 14.99065921    16

Отслеживайте STARLINK-5524 в реальном времени с AllMySat

Download on the App Store